Flag for Austria Weather past 2 weeks in Hollabrunn, Lower Austria, Austria

Now
36 °F

Chilly.


Feels Like: 29 °F
Forecast: 31 / 44 °F
Wind: 8 mph from Northwest

Location: Retz

Current Time: Mar 5, 2015 at 8:41:03 AM

Latest Report: Mar 5, 2015 at 8:00 AM


Visibility: N/A

Pressure: 30.40 "Hg

Humidity: 70%

Dew point: 27 °F

Location of HollabrunnLocation

Historic Weather in Hollabrunn — Graph

°F

Hollabrunn temperature yesterday

Maximum temperature yesterday: 47 °F (at 3:00 PM)
Minimum temperature yesterday: 33 °F (at 12:00 AM)
Average temperature yesterday: 40 °F

Past Weeks' High & Low Weather Summary

 TemperatureHumidityPressure
High49 °F (Mar 2, 10:00 AM)100% (Feb 20, 10:00 AM)30.78 "Hg (Feb 20, 10:00 AM)
Low26 °F (Feb 20, 6:00 AM)36% (Mar 4, 3:00 PM)29.56 "Hg (Feb 23, 4:00 PM)
Average38 °F79%30.02 "Hg
* Reported Feb 18 7:00 AM — Mar 5 7:00 AM, Hollabrunn, Weather by CustomWeather, © 2015

Note: Actual official high and low records may vary slightly from our data, if they occured in-between our weather recording intervals... More about our weather records

Advertising

Hollabrunn weather history for previous 24 hours

 ConditionsComfort  
Time TempWeatherWind HumidityBarometerVisibility
7:00 AM
Thu, Mar 5
34 °FPassing clouds.8 mph73%30.39 "Hg12 mi
6:00 AM34 °FChilly.7 mph72%30.38 "HgN/A
5:00 AM34 °FChilly.6 mph71%30.38 "HgN/A
4:00 AM35 °FChilly.6 mph70%30.38 "HgN/A
2:00 AM36 °FChilly.6 mph67%30.38 "HgN/A
1:00 AM35 °FChilly.5 mph67%30.37 "HgN/A
12:00 AM36 °FChilly.5 mph64%30.35 "HgN/A
11:00 PM
Wed, Mar 4
36 °FChilly.6 mph61%30.33 "HgN/A
9:00 PM38 °FChilly.5 mph56%30.32 "HgN/A
8:00 PM38 °FChilly.5 mph57%30.31 "HgN/A
7:00 PM39 °FPassing clouds.3 mph51%30.30 "Hg9 mi
6:00 PM41 °FQuite cool.3 mph45%30.27 "HgN/A
5:00 PM44 °FQuite cool.5 mph42%30.25 "HgN/A
4:00 PM45 °FCool.6 mph39%30.23 "HgN/A
3:00 PM47 °FCool.6 mph36%30.22 "HgN/A
2:00 PM47 °FCool.7 mph39%30.22 "HgN/A
1:00 PM46 °FScattered clouds.7 mph50%30.23 "Hg28 mi
12:00 PM43 °FQuite cool.8 mph62%30.24 "HgN/A
11:00 AM42 °FQuite cool.7 mph67%30.24 "HgN/A
10:00 AM38 °FChilly.6 mph87%30.24 "HgN/A
9:00 AM40 °FQuite cool.7 mph80%30.19 "HgN/A
8:00 AM39 °FChilly.8 mph84%30.16 "HgN/A
Weather by CustomWeather, © 2015

See weather overviewHow to use our weather pages